CCA1202 ZLXY-ZBAA

Flight info

Callsign CCA1202
Flight time 2h 9m
Altitude 35100
Route WJC9Y WJC/K0856S1130 W193 ALGOV W101 DUDIL W69 GUVBA GUVBA7X
Aircraft B738/M-SDE2E3FGHIRWXY/LB1

Departure

Time 2026-05-09 11:35
Airport Xi'an Xianyang International Airport (ZLXY)

Arrival

Time 2026-05-09 13:44
Airport Beijing Capital International Airport (ZBAA)
Time Latitude Longitude Altitude Speed Heading
2026-05-09 11:00 34.43668 108.76112 1573 ft 0 kts 229°
2026-05-09 11:21 34.43670 108.76115 1573 ft 3 kts 229°
2026-05-09 11:21 34.43683 108.76134 1573 ft 4 kts 227°
2026-05-09 11:21 34.43703 108.76153 1574 ft 4 kts 199°
2026-05-09 11:21 34.43728 108.76157 1574 ft 4 kts 161°
2026-05-09 11:22 34.43743 108.76148 1574 ft 0 kts 140°
2026-05-09 11:26 34.43736 108.76156 1574 ft 3 kts 140°
2026-05-09 11:26 34.43712 108.76179 1574 ft 6 kts 141°
2026-05-09 11:27 34.43673 108.76219 1574 ft 9 kts 140°
2026-05-09 11:27 34.43621 108.76275 1574 ft 11 kts 139°
2026-05-09 11:27 34.43560 108.76340 1574 ft 12 kts 138°
2026-05-09 11:27 34.43492 108.76412 1574 ft 14 kts 139°
2026-05-09 11:28 34.43419 108.76489 1574 ft 14 kts 139°
2026-05-09 11:28 34.43407 108.76595 1574 ft 15 kts 53°
2026-05-09 11:28 34.43475 108.76691 1574 ft 15 kts 49°
2026-05-09 11:28 34.43546 108.76791 1574 ft 16 kts 49°
2026-05-09 11:29 34.43618 108.76891 1575 ft 16 kts 48°
2026-05-09 11:29 34.43689 108.76988 1575 ft 15 kts 48°
2026-05-09 11:29 34.43757 108.77083 1575 ft 15 kts 50°
2026-05-09 11:29 34.43825 108.77179 1576 ft 15 kts 49°
2026-05-09 11:30 34.43893 108.77273 1576 ft 15 kts 49°
2026-05-09 11:30 34.43960 108.77365 1577 ft 15 kts 49°
2026-05-09 11:30 34.44026 108.77456 1577 ft 15 kts 48°
2026-05-09 11:30 34.44099 108.77554 1577 ft 16 kts 48°
2026-05-09 11:31 34.44171 108.77652 1577 ft 16 kts 48°
2026-05-09 11:31 34.44241 108.77753 1577 ft 16 kts 51°
2026-05-09 11:31 34.44310 108.77854 1577 ft 16 kts 48°
2026-05-09 11:31 34.44385 108.77948 1578 ft 15 kts 49°
2026-05-09 11:32 34.44448 108.78045 1578 ft 14 kts 64°
2026-05-09 11:32 34.44435 108.78108 1578 ft 0 kts 137°
2026-05-09 11:33 34.44427 108.78117 1578 ft 3 kts 137°
2026-05-09 11:33 34.44343 108.78185 1577 ft 9 kts 186°
2026-05-09 11:34 34.44305 108.78145 1577 ft 0 kts 229°
2026-05-09 11:34 34.44300 108.78138 1577 ft 3 kts 229°
2026-05-09 11:34 34.44194 108.77991 1576 ft 56 kts 229°
2026-05-09 11:34 34.43779 108.77421 1577 ft 122 kts 229°
2026-05-09 11:35 34.43104 108.76458 1597 ft 174 kts 231°
2026-05-09 11:35 34.42268 108.75333 2237 ft 177 kts 227°
2026-05-09 11:35 34.41433 108.74215 2968 ft 185 kts 229°
2026-05-09 11:35 34.40557 108.73021 3676 ft 192 kts 230°
2026-05-09 11:36 34.39676 108.71812 4507 ft 190 kts 229°
2026-05-09 11:36 34.38789 108.70590 5085 ft 203 kts 230°
2026-05-09 11:36 34.37803 108.69224 5254 ft 227 kts 230°
2026-05-09 11:36 34.36735 108.67744 5646 ft 238 kts 230°
2026-05-09 11:37 34.35631 108.66214 6243 ft 242 kts 230°
2026-05-09 11:37 34.34512 108.64663 6867 ft 248 kts 231°
2026-05-09 11:37 34.33358 108.63093 7585 ft 251 kts 229°
2026-05-09 11:37 34.32160 108.61531 8277 ft 256 kts 229°
2026-05-09 11:38 34.30934 108.59941 9002 ft 260 kts 230°
2026-05-09 11:38 34.29678 108.58309 9634 ft 268 kts 229°
2026-05-09 11:38 34.28396 108.56642 10310 ft 272 kts 230°
2026-05-09 11:38 34.27189 108.54921 10977 ft 272 kts 244°
2026-05-09 11:39 34.26679 108.52769 11633 ft 265 kts 275°
2026-05-09 11:39 34.27070 108.50616 12149 ft 266 kts 301°
2026-05-09 11:39 34.28152 108.48811 12761 ft 266 kts 318°
2026-05-09 11:40 34.30876 108.45789 14230 ft 267 kts 322°
2026-05-09 11:40 34.32448 108.44633 14810 ft 268 kts 344°
2026-05-09 11:40 34.34316 108.44386 15403 ft 274 kts
2026-05-09 11:40 34.36219 108.45026 15591 ft 299 kts 26°
2026-05-09 11:41 34.37997 108.46505 15773 ft 322 kts 34°
2026-05-09 11:41 34.39813 108.48238 15920 ft 343 kts 36°
2026-05-09 11:41 34.41730 108.50110 16058 ft 363 kts 36°
2026-05-09 11:41 34.43749 108.52076 16199 ft 381 kts 36°
2026-05-09 11:42 34.45865 108.54119 16327 ft 396 kts 36°
2026-05-09 11:42 34.48042 108.56208 16678 ft 404 kts 36°
2026-05-09 11:42 34.50266 108.58333 17158 ft 408 kts 36°
2026-05-09 11:42 34.52507 108.60469 17695 ft 412 kts 36°
2026-05-09 11:43 34.54773 108.62629 18184 ft 416 kts 36°
2026-05-09 11:43 34.56940 108.64979 18604 ft 421 kts 43°
2026-05-09 11:43 34.58931 108.67616 19049 ft 426 kts 46°
2026-05-09 11:43 34.60856 108.70347 19469 ft 430 kts 47°
2026-05-09 11:44 34.62775 108.73093 19865 ft 433 kts 46°
2026-05-09 11:44 34.64746 108.75874 20281 ft 436 kts 46°
2026-05-09 11:44 34.66752 108.78659 20705 ft 439 kts 45°
2026-05-09 11:44 34.68781 108.81444 21168 ft 442 kts 45°
2026-05-09 11:45 34.70833 108.84242 21544 ft 445 kts 45°
2026-05-09 11:45 34.72904 108.87063 21888 ft 450 kts 45°
2026-05-09 11:45 34.74994 108.89913 22260 ft 453 kts 45°
2026-05-09 11:45 34.77096 108.92782 22646 ft 456 kts 45°
2026-05-09 11:46 34.79213 108.95678 23030 ft 459 kts 45°
2026-05-09 11:46 34.81417 108.98489 23345 ft 458 kts 36°
2026-05-09 11:46 34.84117 109.00472 23630 ft 452 kts 18°
2026-05-09 11:46 34.87085 109.01693 23987 ft 450 kts 13°
2026-05-09 11:47 34.90087 109.02830 24280 ft 453 kts 13°
2026-05-09 11:47 34.93103 109.03964 24574 ft 456 kts 13°
2026-05-09 11:47 34.96142 109.05118 24868 ft 458 kts 13°
2026-05-09 11:47 34.99191 109.06294 25170 ft 461 kts 13°
2026-05-09 11:48 35.02252 109.07490 25448 ft 463 kts 13°
2026-05-09 11:48 35.05288 109.08686 25728 ft 465 kts 13°
2026-05-09 11:48 35.08415 109.09925 26015 ft 468 kts 13°
2026-05-09 11:48 35.11516 109.11157 26304 ft 470 kts 12°
2026-05-09 11:49 35.14590 109.12381 26555 ft 472 kts 12°
2026-05-09 11:49 35.17715 109.13626 26827 ft 473 kts 12°
2026-05-09 11:49 35.20852 109.14868 27100 ft 475 kts 12°
2026-05-09 11:49 35.23990 109.16114 27447 ft 474 kts 12°
2026-05-09 11:50 35.27130 109.17366 27773 ft 475 kts 12°
2026-05-09 11:50 35.30270 109.18627 28128 ft 474 kts 12°
2026-05-09 11:50 35.33393 109.19896 28490 ft 473 kts 11°
2026-05-09 11:50 35.36526 109.21150 28826 ft 474 kts 11°
2026-05-09 11:51 35.39669 109.22388 29180 ft 473 kts 11°
2026-05-09 11:51 35.42805 109.23632 29584 ft 473 kts 11°
2026-05-09 11:51 35.45930 109.24885 30000 ft 472 kts 11°
2026-05-09 11:51 35.49051 109.26139 30284 ft 471 kts 10°
2026-05-09 11:52 35.52172 109.27390 30606 ft 471 kts 10°
2026-05-09 11:52 35.55281 109.28636 30975 ft 469 kts 10°
2026-05-09 11:52 35.58332 109.29861 31306 ft 468 kts 10°
2026-05-09 11:52 35.61432 109.31106 31618 ft 467 kts 10°
2026-05-09 11:53 35.64512 109.32344 31950 ft 466 kts
2026-05-09 11:53 35.67578 109.33583 32434 ft 461 kts
2026-05-09 11:53 35.70609 109.34812 32893 ft 457 kts
2026-05-09 11:53 35.73630 109.36015 33177 ft 457 kts
2026-05-09 11:54 35.76655 109.37230 33416 ft 458 kts
2026-05-09 11:54 35.79696 109.38254 33692 ft 448 kts
2026-05-09 11:54 35.82750 109.38822 34027 ft 441 kts 358°
2026-05-09 11:54 35.85786 109.39264 34291 ft 439 kts 357°
2026-05-09 11:55 35.88828 109.39682 34530 ft 440 kts 357°
2026-05-09 11:56 36.03951 109.42067 34994 ft 441 kts 358°
2026-05-09 11:56 36.06009 109.42413 35001 ft 443 kts 358°
2026-05-09 11:57 36.13151 109.43618 35003 ft 447 kts 359°
2026-05-09 11:57 36.19285 109.44660 34990 ft 442 kts 359°
2026-05-09 11:58 36.25326 109.45683 34991 ft 437 kts 358°
2026-05-09 11:58 36.30341 109.46525 34976 ft 439 kts 359°
2026-05-09 11:59 36.36425 109.47552 34986 ft 442 kts 359°
2026-05-09 11:59 36.42509 109.48563 34969 ft 439 kts 357°
2026-05-09 12:00 36.48542 109.48863 34968 ft 431 kts 353°
2026-05-09 12:00 36.54539 109.49038 34974 ft 431 kts 353°
2026-05-09 12:01 36.60545 109.49303 34971 ft 432 kts 355°
2026-05-09 12:01 36.66558 109.49576 34964 ft 432 kts 355°
2026-05-09 12:02 36.72555 109.49859 34966 ft 432 kts 355°
2026-05-09 12:02 36.78557 109.50141 34964 ft 432 kts 355°
2026-05-09 12:03 36.84572 109.50424 34966 ft 433 kts 355°
2026-05-09 12:03 36.90605 109.50707 34964 ft 434 kts 355°
2026-05-09 12:04 36.96656 109.50993 34958 ft 436 kts 355°
2026-05-09 12:04 37.02682 109.51277 34980 ft 437 kts 356°
2026-05-09 12:05 37.08774 109.51565 34968 ft 438 kts 356°
2026-05-09 12:05 37.14865 109.51855 34977 ft 439 kts 356°
2026-05-09 12:06 37.20898 109.52140 34961 ft 439 kts 356°
2026-05-09 12:06 37.27000 109.52430 34962 ft 439 kts 356°
2026-05-09 12:07 37.33102 109.52721 34959 ft 439 kts 356°
2026-05-09 12:07 37.39201 109.53012 34951 ft 438 kts 356°
2026-05-09 12:08 37.45298 109.53303 34957 ft 438 kts 356°
2026-05-09 12:08 37.51352 109.53593 34954 ft 438 kts 356°
2026-05-09 12:09 37.57440 109.53885 34945 ft 437 kts 356°
2026-05-09 12:09 37.63526 109.54177 34943 ft 437 kts 356°
2026-05-09 12:10 37.75654 109.54761 34945 ft 436 kts 356°
2026-05-09 12:11 37.81709 109.55053 34942 ft 435 kts 356°
2026-05-09 12:11 37.87759 109.55345 34946 ft 435 kts 356°
2026-05-09 12:12 37.93813 109.55638 34958 ft 435 kts 356°
2026-05-09 12:12 37.99857 109.55930 34946 ft 435 kts 356°
2026-05-09 12:13 38.05860 109.56221 34945 ft 434 kts 356°
2026-05-09 12:13 38.11901 109.56515 34951 ft 434 kts 356°
2026-05-09 12:14 38.17942 109.56809 34958 ft 434 kts 356°
2026-05-09 12:14 38.23970 109.57104 34950 ft 434 kts 356°
2026-05-09 12:15 38.30011 109.57399 34953 ft 433 kts 356°
2026-05-09 12:15 38.36033 109.57694 34975 ft 433 kts 356°
2026-05-09 12:16 38.42053 109.58622 34966 ft 440 kts
2026-05-09 12:16 38.48049 109.60261 34956 ft 441 kts
2026-05-09 12:17 38.54044 109.61884 34968 ft 440 kts
2026-05-09 12:17 38.60037 109.63449 34975 ft 440 kts
2026-05-09 12:18 38.65999 109.64993 34970 ft 439 kts
2026-05-09 12:18 38.71994 109.66550 34970 ft 439 kts
2026-05-09 12:19 38.77988 109.68086 34968 ft 439 kts
2026-05-09 12:19 38.83981 109.69570 34980 ft 439 kts
2026-05-09 12:20 38.89973 109.71058 34976 ft 438 kts
2026-05-09 12:20 38.95953 109.72553 34978 ft 438 kts
2026-05-09 12:21 39.01947 109.74056 34988 ft 438 kts
2026-05-09 12:21 39.07922 109.75557 34982 ft 438 kts
2026-05-09 12:22 39.13900 109.77093 34990 ft 438 kts
2026-05-09 12:22 39.19845 109.78633 34991 ft 438 kts
2026-05-09 12:23 39.25755 109.80163 35005 ft 438 kts
2026-05-09 12:23 39.31732 109.81713 34980 ft 431 kts
2026-05-09 12:23 39.34614 109.82468 34968 ft 416 kts
2026-05-09 12:24 39.37405 109.83199 34971 ft 401 kts
2026-05-09 12:24 39.40093 109.83898 34966 ft 387 kts
2026-05-09 12:24 39.42696 109.84573 34971 ft 374 kts
2026-05-09 12:24 39.45201 109.85224 34970 ft 360 kts
2026-05-09 12:25 39.47622 109.85853 34983 ft 355 kts
2026-05-09 12:25 39.52545 109.86793 35012 ft 361 kts 358°
2026-05-09 12:26 39.57600 109.87476 35015 ft 372 kts 358°
2026-05-09 12:26 39.62768 109.88190 35019 ft 372 kts 358°
2026-05-09 12:27 39.67845 109.88922 34994 ft 363 kts 358°
2026-05-09 12:27 39.72873 109.89647 35016 ft 364 kts 358°
2026-05-09 12:28 39.77922 109.90374 35021 ft 366 kts 358°
2026-05-09 12:28 39.82996 109.91109 35031 ft 368 kts 359°
2026-05-09 12:29 39.88101 109.91851 35018 ft 370 kts 359°
2026-05-09 12:29 39.93221 109.92597 35014 ft 370 kts 359°
2026-05-09 12:30 39.98319 109.93341 35009 ft 370 kts 359°
2026-05-09 12:30 40.05987 109.94461 35017 ft 369 kts 359°
2026-05-09 12:31 40.13648 109.95583 35005 ft 368 kts 359°
2026-05-09 12:32 40.18725 109.96327 35005 ft 367 kts 359°
2026-05-09 12:32 40.23673 109.98233 35033 ft 387 kts 24°
2026-05-09 12:32 40.25848 110.00412 35000 ft 399 kts 38°
2026-05-09 12:33 40.27592 110.03258 34996 ft 412 kts 53°
2026-05-09 12:33 40.28742 110.06773 35005 ft 423 kts 71°
2026-05-09 12:33 40.29071 110.10632 34996 ft 432 kts 91°
2026-05-09 12:33 40.28497 110.14518 35010 ft 437 kts 110°
2026-05-09 12:34 40.27090 110.17972 35019 ft 438 kts 130°
2026-05-09 12:34 40.24940 110.20781 35013 ft 437 kts 149°
2026-05-09 12:34 40.22274 110.22635 35023 ft 432 kts 167°
2026-05-09 12:34 40.19384 110.23497 35003 ft 421 kts 184°
2026-05-09 12:35 40.16504 110.23360 35017 ft 411 kts 193°
2026-05-09 12:35 40.10820 110.22460 35009 ft 412 kts 194°
2026-05-09 12:36 40.05105 110.21615 35006 ft 414 kts 193°
2026-05-09 12:36 39.99519 110.20311 34995 ft 394 kts 214°
2026-05-09 12:37 39.95105 110.16460 35018 ft 372 kts 233°
2026-05-09 12:37 39.93552 110.13862 35007 ft 357 kts 249°
2026-05-09 12:37 39.92673 110.10917 35016 ft 344 kts 263°
2026-05-09 12:37 39.92428 110.07866 35018 ft 336 kts 276°
2026-05-09 12:38 39.92728 110.04873 35016 ft 332 kts 287°
2026-05-09 12:38 39.94736 109.99540 35017 ft 330 kts 308°
2026-05-09 12:38 39.96347 109.97453 35016 ft 333 kts 319°
2026-05-09 12:39 39.98331 109.95857 35014 ft 339 kts 330°
2026-05-09 12:39 40.02956 109.94285 35031 ft 357 kts 354°
2026-05-09 12:40 40.07980 109.94821 35023 ft 365 kts 359°
2026-05-09 12:40 40.13054 109.95572 35017 ft 368 kts 359°
2026-05-09 12:41 40.18164 109.96269 35016 ft 370 kts 358°
2026-05-09 12:41 40.23222 109.97968 35038 ft 403 kts 28°
2026-05-09 12:41 40.25310 110.00552 35020 ft 423 kts 43°
2026-05-09 12:42 40.27213 110.03530 35034 ft 429 kts 42°
2026-05-09 12:42 40.31390 110.09188 35016 ft 435 kts 35°
2026-05-09 12:43 40.36007 110.14444 35019 ft 444 kts 33°
2026-05-09 12:43 40.40788 110.19723 35031 ft 455 kts 33°
2026-05-09 12:44 40.45670 110.25165 35020 ft 464 kts 33°
2026-05-09 12:44 40.50636 110.30697 35009 ft 469 kts 33°
2026-05-09 12:45 40.55580 110.36221 35016 ft 470 kts 33°
2026-05-09 12:45 40.60559 110.41792 35034 ft 470 kts 35°
2026-05-09 12:45 40.62088 110.43857 34993 ft 480 kts 48°
2026-05-09 12:46 40.64080 110.49192 35042 ft 496 kts 70°
2026-05-09 12:46 40.64484 110.52169 35021 ft 503 kts 83°
2026-05-09 12:46 40.64519 110.56785 35035 ft 505 kts 88°
2026-05-09 12:47 40.64316 110.66032 35031 ft 505 kts 88°
2026-05-09 12:47 40.64130 110.75269 35035 ft 503 kts 88°
2026-05-09 12:47 40.64074 110.79809 34987 ft 490 kts 88°
2026-05-09 12:48 40.64022 110.84262 35057 ft 485 kts 87°
2026-05-09 12:48 40.63922 110.93109 35036 ft 482 kts 87°
2026-05-09 12:49 40.63817 111.01907 35021 ft 479 kts 87°
2026-05-09 12:49 40.63705 111.10677 35026 ft 478 kts 87°
2026-05-09 12:50 40.63584 111.19423 35032 ft 477 kts 87°
2026-05-09 12:50 40.63458 111.28149 35026 ft 476 kts 87°
2026-05-09 12:51 40.63326 111.36817 35026 ft 477 kts 87°
2026-05-09 12:51 40.63187 111.45536 35025 ft 477 kts 87°
2026-05-09 12:52 40.63042 111.54281 35020 ft 478 kts 87°
2026-05-09 12:52 40.62890 111.63048 35033 ft 479 kts 87°
2026-05-09 12:53 40.62730 111.71821 35030 ft 480 kts 87°
2026-05-09 12:53 40.62565 111.80610 35051 ft 481 kts 87°
2026-05-09 12:54 40.62393 111.89409 35034 ft 482 kts 86°
2026-05-09 12:54 40.62301 111.98196 35032 ft 483 kts 88°
2026-05-09 12:55 40.62025 112.07057 35033 ft 484 kts 88°
2026-05-09 12:55 40.61809 112.15918 35033 ft 484 kts 87°
2026-05-09 12:56 40.61617 112.24777 35027 ft 484 kts 87°
2026-05-09 12:56 40.61406 112.33627 35009 ft 484 kts 88°
2026-05-09 12:57 40.61186 112.42471 35029 ft 483 kts 88°
2026-05-09 12:57 40.61006 112.51278 35021 ft 480 kts 88°
2026-05-09 12:58 40.60528 112.59985 35018 ft 481 kts 91°
2026-05-09 12:58 40.59951 112.68752 35018 ft 480 kts 90°
2026-05-09 12:59 40.59391 112.77486 35009 ft 480 kts 92°
2026-05-09 12:59 40.58664 112.86230 35010 ft 481 kts 91°
2026-05-09 13:00 40.58083 112.94995 35000 ft 481 kts 91°
2026-05-09 13:00 40.57525 113.03770 34994 ft 481 kts 91°
2026-05-09 13:01 40.56943 113.12553 34983 ft 482 kts 91°
2026-05-09 13:01 40.56341 113.21339 34992 ft 483 kts 91°
2026-05-09 13:02 40.55728 113.30143 34989 ft 483 kts 91°
2026-05-09 13:02 40.55113 113.38895 34971 ft 484 kts 91°
2026-05-09 13:03 40.54483 113.47773 34982 ft 485 kts 91°
2026-05-09 13:03 40.53854 113.56546 34964 ft 485 kts 92°
2026-05-09 13:04 40.53214 113.65372 34965 ft 485 kts 92°
2026-05-09 13:04 40.52568 113.74194 34967 ft 485 kts 92°
2026-05-09 13:05 40.51915 113.83006 34964 ft 484 kts 92°
2026-05-09 13:05 40.51587 113.87412 34815 ft 482 kts 92°
2026-05-09 13:05 40.51259 113.91775 34533 ft 476 kts 92°
2026-05-09 13:05 40.50935 113.96078 34308 ft 471 kts 92°
2026-05-09 13:06 40.50615 114.00352 34059 ft 467 kts 91°
2026-05-09 13:06 40.50376 114.04592 33822 ft 463 kts 89°
2026-05-09 13:06 40.50200 114.08798 33480 ft 458 kts 88°
2026-05-09 13:06 40.50048 114.12961 33102 ft 454 kts 88°
2026-05-09 13:07 40.49898 114.17091 32724 ft 451 kts 88°
2026-05-09 13:07 40.49742 114.21196 32344 ft 448 kts 88°
2026-05-09 13:07 40.49580 114.25215 31987 ft 446 kts 88°
2026-05-09 13:07 40.49409 114.29288 31572 ft 444 kts 88°
2026-05-09 13:08 40.49233 114.33321 31262 ft 441 kts 88°
2026-05-09 13:08 40.49055 114.37323 30897 ft 439 kts 88°
2026-05-09 13:08 40.48875 114.41319 30540 ft 437 kts 88°
2026-05-09 13:08 40.48695 114.45298 30177 ft 435 kts 88°
2026-05-09 13:09 40.48514 114.49256 29804 ft 434 kts 88°
2026-05-09 13:09 40.48333 114.53203 29403 ft 431 kts 88°
2026-05-09 13:09 40.48151 114.57128 28988 ft 429 kts 88°
2026-05-09 13:09 40.47969 114.61026 28602 ft 426 kts 88°
2026-05-09 13:10 40.47787 114.64911 28216 ft 423 kts 88°
2026-05-09 13:10 40.47626 114.68309 27887 ft 421 kts 88°
2026-05-09 13:10 40.47442 114.72183 27523 ft 418 kts 89°
2026-05-09 13:10 40.47263 114.75937 27165 ft 416 kts 89°
2026-05-09 13:11 40.47081 114.79721 26799 ft 414 kts 89°
2026-05-09 13:11 40.46900 114.83470 26433 ft 411 kts 89°
2026-05-09 13:11 40.46717 114.87199 26085 ft 408 kts 89°
2026-05-09 13:11 40.46534 114.90908 25724 ft 406 kts 89°
2026-05-09 13:12 40.46351 114.94602 25369 ft 404 kts 89°
2026-05-09 13:12 40.46172 114.98285 25015 ft 402 kts 89°
2026-05-09 13:12 40.45990 115.01938 24691 ft 401 kts 90°
2026-05-09 13:12 40.45804 115.05592 24299 ft 400 kts 90°
2026-05-09 13:13 40.45618 115.09229 23943 ft 399 kts 90°
2026-05-09 13:13 40.45432 115.12856 23585 ft 398 kts 90°
2026-05-09 13:13 40.45245 115.16486 23173 ft 398 kts 90°
2026-05-09 13:13 40.45058 115.20098 22782 ft 395 kts 90°
2026-05-09 13:14 40.44871 115.23683 22412 ft 392 kts 91°
2026-05-09 13:14 40.44684 115.27244 22065 ft 389 kts 91°
2026-05-09 13:16 40.43395 115.51365 19683 ft 370 kts 92°
2026-05-09 13:16 40.43242 115.54713 19414 ft 366 kts 89°
2026-05-09 13:16 40.43206 115.58022 19192 ft 360 kts 88°
2026-05-09 13:16 40.43209 115.61286 18960 ft 355 kts 88°
2026-05-09 13:17 40.43213 115.64518 18781 ft 353 kts 88°
2026-05-09 13:17 40.43206 115.67738 18571 ft 352 kts 89°
2026-05-09 13:17 40.43189 115.70937 18347 ft 349 kts 89°
2026-05-09 13:17 40.43167 115.74116 18148 ft 348 kts 89°
2026-05-09 13:18 40.43143 115.77303 17932 ft 351 kts 89°
2026-05-09 13:18 40.43114 115.80517 17701 ft 353 kts 89°
2026-05-09 13:18 40.43083 115.83732 17473 ft 351 kts 89°
2026-05-09 13:18 40.43051 115.86883 17279 ft 349 kts 89°
2026-05-09 13:19 40.43018 115.90067 17056 ft 348 kts 89°
2026-05-09 13:19 40.42985 115.93229 16843 ft 346 kts 89°
2026-05-09 13:19 40.42952 115.96384 16628 ft 345 kts 89°
2026-05-09 13:19 40.42918 115.99531 16425 ft 344 kts 89°
2026-05-09 13:20 40.42883 116.02668 16220 ft 343 kts 89°
2026-05-09 13:20 40.42848 116.05796 16017 ft 343 kts 89°
2026-05-09 13:20 40.42812 116.08929 15815 ft 342 kts 89°
2026-05-09 13:20 40.42775 116.12049 15615 ft 342 kts 89°
2026-05-09 13:21 40.42737 116.15180 15389 ft 343 kts 90°
2026-05-09 13:21 40.42698 116.18303 15193 ft 341 kts 90°
2026-05-09 13:21 40.42659 116.21424 14989 ft 341 kts 89°
2026-05-09 13:21 40.42618 116.24535 14785 ft 341 kts 89°
2026-05-09 13:22 40.42578 116.27605 14581 ft 341 kts 90°
2026-05-09 13:22 40.42536 116.30721 14370 ft 341 kts 90°
2026-05-09 13:22 40.42494 116.33831 14178 ft 341 kts 90°
2026-05-09 13:23 40.42313 116.46324 13327 ft 341 kts 90°
2026-05-09 13:23 40.42267 116.49427 13121 ft 339 kts 90°
2026-05-09 13:24 40.42220 116.52522 12901 ft 338 kts 90°
2026-05-09 13:24 40.42173 116.55593 12709 ft 335 kts 90°
2026-05-09 13:24 40.42124 116.58642 12475 ft 331 kts 90°
2026-05-09 13:24 40.42072 116.61642 12299 ft 326 kts 92°
2026-05-09 13:25 40.41576 116.64509 12092 ft 324 kts 117°
2026-05-09 13:25 40.40234 116.66837 11929 ft 318 kts 143°
2026-05-09 13:25 40.36318 116.68886 11634 ft 301 kts 177°
2026-05-09 13:26 40.34241 116.69211 11492 ft 302 kts 178°
2026-05-09 13:26 40.32135 116.69509 11333 ft 307 kts 178°
2026-05-09 13:26 40.30008 116.69811 11155 ft 308 kts 178°
2026-05-09 13:26 40.27877 116.70124 10973 ft 307 kts 178°
2026-05-09 13:27 40.25757 116.70443 10791 ft 307 kts 178°
2026-05-09 13:27 40.23635 116.70768 10611 ft 307 kts 177°
2026-05-09 13:27 40.21513 116.71094 10423 ft 306 kts 176°
2026-05-09 13:27 40.19397 116.71421 10244 ft 306 kts 176°
2026-05-09 13:28 40.17287 116.71749 10057 ft 303 kts 176°
2026-05-09 13:28 40.15211 116.72072 9877 ft 298 kts 176°
2026-05-09 13:28 40.13173 116.72388 9695 ft 292 kts 176°
2026-05-09 13:28 40.11168 116.72699 9509 ft 288 kts 176°
2026-05-09 13:29 40.09184 116.73005 9336 ft 287 kts 176°
2026-05-09 13:29 40.07199 116.73310 9124 ft 287 kts 176°
2026-05-09 13:29 40.05218 116.73615 8954 ft 287 kts 176°
2026-05-09 13:29 40.03239 116.73920 8773 ft 287 kts 176°
2026-05-09 13:30 40.01278 116.74222 8610 ft 287 kts 176°
2026-05-09 13:30 39.99295 116.74528 8431 ft 287 kts 176°
2026-05-09 13:30 39.97311 116.74834 8263 ft 287 kts 176°
2026-05-09 13:30 39.95328 116.75139 8081 ft 287 kts 176°
2026-05-09 13:31 39.93348 116.75443 7918 ft 286 kts 176°
2026-05-09 13:31 39.91369 116.75748 7749 ft 286 kts 176°
2026-05-09 13:31 39.89397 116.76051 7574 ft 285 kts 176°
2026-05-09 13:31 39.87428 116.76354 7392 ft 284 kts 176°
2026-05-09 13:32 39.85468 116.76655 7220 ft 283 kts 176°
2026-05-09 13:32 39.81564 116.77254 6875 ft 280 kts 176°
2026-05-09 13:32 39.80286 116.77451 6756 ft 279 kts 178°
2026-05-09 13:33 39.77713 116.77845 6527 ft 277 kts 178°
2026-05-09 13:33 39.76455 116.78039 6417 ft 273 kts 178°
2026-05-09 13:33 39.74590 116.78325 6256 ft 267 kts 178°
2026-05-09 13:33 39.72151 116.78697 6032 ft 260 kts 180°
2026-05-09 13:34 39.70978 116.78658 5909 ft 250 kts 198°
2026-05-09 13:34 39.69151 116.77190 5742 ft 227 kts 234°
2026-05-09 13:34 39.68566 116.76067 5652 ft 220 kts 246°
2026-05-09 13:34 39.68066 116.73608 5496 ft 210 kts 263°
2026-05-09 13:35 39.67899 116.71739 5370 ft 208 kts 263°
2026-05-09 13:35 39.67785 116.70478 5289 ft 208 kts 263°
2026-05-09 13:35 39.67616 116.68612 5170 ft 208 kts 262°
2026-05-09 13:35 39.67473 116.66745 5040 ft 209 kts 270°
2026-05-09 13:36 39.67915 116.64944 4904 ft 215 kts 301°
2026-05-09 13:36 39.69029 116.63659 4770 ft 224 kts 328°
2026-05-09 13:36 39.70583 116.63124 4628 ft 233 kts 348°
2026-05-09 13:36 39.72178 116.62910 4473 ft 233 kts 348°
2026-05-09 13:37 39.74314 116.62598 4267 ft 229 kts 348°
2026-05-09 13:37 39.75358 116.62441 4151 ft 227 kts 348°
2026-05-09 13:37 39.76913 116.62203 3982 ft 224 kts 349°
2026-05-09 13:37 39.78448 116.61966 3828 ft 221 kts 349°
2026-05-09 13:38 39.79988 116.61725 3697 ft 223 kts 349°
2026-05-09 13:38 39.81536 116.61482 3543 ft 226 kts 349°
2026-05-09 13:38 39.83101 116.61236 3391 ft 228 kts 349°
2026-05-09 13:38 39.84679 116.60989 3247 ft 229 kts 350°
2026-05-09 13:39 39.86268 116.60740 3088 ft 229 kts 350°
2026-05-09 13:39 39.87843 116.60493 2917 ft 226 kts 351°
2026-05-09 13:39 39.89381 116.60251 2753 ft 218 kts 351°
2026-05-09 13:39 39.90852 116.60020 2597 ft 209 kts 352°
2026-05-09 13:40 39.92264 116.59798 2458 ft 200 kts 352°
2026-05-09 13:40 39.93616 116.59585 2341 ft 192 kts 352°
2026-05-09 13:40 39.94906 116.59382 2219 ft 182 kts 353°
2026-05-09 13:40 39.96113 116.59191 2075 ft 173 kts 353°
2026-05-09 13:41 39.97307 116.59003 2017 ft 174 kts 353°
2026-05-09 13:41 39.98475 116.58822 1917 ft 166 kts 353°
2026-05-09 13:41 39.99587 116.58649 1699 ft 156 kts 354°
2026-05-09 13:41 40.00653 116.58481 1469 ft 152 kts 354°
2026-05-09 13:42 40.01707 116.58314 1275 ft 154 kts 354°
2026-05-09 13:42 40.02767 116.58146 1066 ft 152 kts 354°
2026-05-09 13:42 40.03811 116.57979 898 ft 150 kts 353°
2026-05-09 13:42 40.04847 116.57813 684 ft 151 kts 353°
2026-05-09 13:43 40.05890 116.57646 466 ft 151 kts 353°
2026-05-09 13:43 40.06918 116.57485 254 ft 151 kts 352°
2026-05-09 13:43 40.07959 116.57323 112 ft 143 kts 353°
2026-05-09 13:43 40.08739 116.57195 111 ft 82 kts 353°
2026-05-09 13:44 40.09163 116.57132 116 ft 55 kts 353°
2026-05-09 13:44 40.09482 116.57101 118 ft 31 kts
2026-05-09 13:44 40.09645 116.57158 113 ft 17 kts 20°
2026-05-09 13:44 40.09706 116.57234 113 ft 11 kts 86°
2026-05-09 13:45 40.09665 116.57273 112 ft 0 kts 173°
2026-05-09 13:47 40.09659 116.57274 113 ft 2 kts 173°
2026-05-09 13:48 40.09628 116.57279 114 ft 7 kts 173°
2026-05-09 13:48 40.09567 116.57289 116 ft 11 kts 173°
2026-05-09 13:48 40.09478 116.57303 113 ft 14 kts 173°
2026-05-09 13:48 40.09367 116.57321 115 ft 18 kts 173°
2026-05-09 13:49 40.09245 116.57339 113 ft 18 kts 173°
2026-05-09 13:49 40.09116 116.57360 114 ft 18 kts 173°
2026-05-09 13:49 40.09060 116.57415 114 ft 10 kts 97°
2026-05-09 13:49 40.09005 116.57469 113 ft 12 kts 173°
2026-05-09 13:50 40.08924 116.57495 112 ft 13 kts 134°
2026-05-09 13:50 40.08922 116.57599 114 ft 13 kts 83°
2026-05-09 13:50 40.08934 116.57727 112 ft 14 kts 83°
2026-05-09 13:50 40.08945 116.57849 112 ft 12 kts 83°
2026-05-09 13:51 40.08942 116.57944 113 ft 10 kts 125°
2026-05-09 13:51 40.08890 116.58005 114 ft 9 kts 95°
2026-05-09 13:51 40.08859 116.58077 112 ft 11 kts 166°
2026-05-09 13:51 40.08774 116.58096 111 ft 14 kts 173°
2026-05-09 13:52 40.08669 116.58113 112 ft 17 kts 174°
2026-05-09 13:52 40.08549 116.58131 113 ft 17 kts 172°
2026-05-09 13:52 40.08456 116.58152 112 ft 9 kts 149°
2026-05-09 13:52 40.08446 116.58237 113 ft 11 kts 83°
2026-05-09 13:53 40.08455 116.58351 111 ft 14 kts 82°
2026-05-09 13:53 40.08441 116.58474 113 ft 14 kts 143°
2026-05-09 13:53 40.08346 116.58494 113 ft 11 kts 175°
2026-05-09 13:53 40.08311 116.58564 115 ft 12 kts 84°
2026-05-09 13:54 40.08319 116.58656 115 ft 7 kts 83°
2026-05-09 13:54 40.08329 116.58727 114 ft 9 kts 79°
2026-05-09 13:54 40.08309 116.58752 115 ft 5 kts 186°
2026-05-09 13:54 40.08267 116.58752 114 ft 7 kts 174°
2026-05-09 13:55 40.08247 116.58755 113 ft 1 kts 174°